{"data":{"norad_id":51958,"intl_designator":"2022-025C","name":"STARLINK-3692","alt_names":[],"object_type":"PAYLOAD","status":"ACTIVE","operator":null,"country":"US","launch_date":"2022-03-09","launch_site_code":"AFETR","launch_vehicle":null,"mission":null,"orbit_class":"UNKNOWN","rcs_meters":null,"size_class":null,"mass_kg":null,"dimensions":null,"purposes":["comms"],"wikipedia_slug":null,"has_3d_model":false,"image_url":null,"decayed_at":null,"tle_current":{"epoch":"2026-09-20T04:13:26.469120Z","epoch_age_seconds":84202,"freshness":"FRESH","line1":"1 51958U 22025C   26263.17600080 -.00003063  00000+0 -86966-4 0  9992","line2":"2 51958  53.1621 188.4491 0001271 119.8925 240.2203 15.31698386250975","mean_motion":15.31698386,"eccentricity":0.0001271,"inclination_deg":53.1621,"raan_deg":188.4491,"arg_perigee_deg":119.8925,"mean_anomaly_deg":240.2203,"bstar":-8.6966e-5,"rev_number":25097,"period_min":94.013287025818,"perigee_km":469.87431360228,"apogee_km":471.61529935749,"semimajor_km":6848.8818064799,"source":"CELESTRAK","updated_at":"2026-09-20T09:00:39.975416Z"}}}